Wind_Speed
15 15 14 14 14 13 14 14 14 15 16 17 16 16 17 18 19 21 22 23 24 26 29 31 34 36 35 32 29 28 26 25 24 25 27 29 31 34 37 40 42 43 43 44
14 14 14 14 14 13 13 13 13 13 14 14 14 14 15 17 18 19 20 20 22 24 26 27 30 31 29 26 24 22 19 18 17 18 18 19 21 23 26 29 31 33 35 36
14 14 13 13 14 13 13 13 12 12 12 13 13 13 14 15 17 17 18 19 20 21 23 25 27 27 25 23 21 19 16 14 12 10 9 11 13 15 17 20 23 26 28 30
15 14 14 13 14 14 13 13 12 11 11 11 11 12 13 14 15 15 16 17 18 19 20 22 23 23 21 20 19 16 13 12 9 7 5 5 7 9 12 15 17 20 23 25
16 15 14 14 13 13 13 12 12 11 10 10 10 11 12 13 14 15 15 16 16 17 18 20 20 19 18 18 16 14 12 10 8 6 3 1 4 6 9 12 14 17 20 22
17 16 16 14 14 13 13 12 11 10 10 9 9 10 11 12 13 14 15 14 15 16 16 17 17 16 15 15 14 13 10 8 7 6 4 2 1 3 6 9 11 14 18 21
18 17 16 15 14 14 13 12 11 10 10 9 9 10 11 12 13 14 14 14 15 15 15 14 14 13 12 13 13 12 11 10 8 8 5 3 1 3 5 7 11 14 16 19
20 19 18 16 16 15 14 12 12 11 10 9 10 10 11 12 13 14 14 14 14 14 13 12 12 12 11 11 12 12 11 10 9 9 8 5 4 5 6 8 11 13 16 18
21 20 19 18 18 17 16 14 13 12 12 11 10 11 11 12 13 13 13 13 13 12 11 11 10 10 10 11 11 11 11 10 10 9 9 7 8 9 10 11 13 15 18 20
21 21 21 20 19 19 18 16 15 14 13 12 12 12 12 13 13 13 13 12 12 11 10 10 9 9 9 10 10 11 12 12 12 11 11 11 12 13 13 15 16 18 20 23
22 23 23 21 21 20 20 19 18 17 16 14 13 13 13 14 13 13 13 12 12 11 10 9 9 8 9 10 11 12 13 13 14 14 14 15 15 16 17 18 19 21 24 26
23 24 24 23 22 22 21 21 20 19 18 16 15 15 14 15 14 13 13 13 13 12 11 10 10 9 10 11 12 13 15 15 16 17 17 17 18 18 20 21 22 24 27 30
24 24 24 24 24 24 23 22 21 21 20 19 18 17 17 16 16 15 14 14 14 13 12 11 11 11 12 13 14 15 17 18 19 19 19 19 20 21 22 23 25 27 30 34
24 25 25 26 26 26 25 24 23 22 22 21 20 20 19 18 18 17 16 15 15 14 14 13 13 13 14 15 16 18 19 20 21 21 21 22 23 23 25 27 28 31 33 36
25 25 25 26 27 27 27 26 25 24 24 23 22 22 21 20 19 18 17 17 17 16 15 15 15 15 16 17 18 20 21 22 23 23 23 24 25 26 28 29 31 34 36 39
25 25 25 26 27 27 28 28 28 27 25 25 24 24 23 22 20 19 19 18 18 17 16 16 17 17 18 19 20 21 23 23 24 25 25 26 27 28 30 32 34 36 38 41
24 24 25 25 26 27 27 28 28 28 27 26 25 25 24 23 21 20 20 19 19 18 18 18 19 19 20 21 22 23 24 24 25 26 27 28 29 31 32 34 36 38 40 43
23 24 24 25 26 26 26 27 28 28 27 27 25 25 24 23 22 22 21 21 20 20 20 20 20 21 21 22 23 24 25 26 27 28 29 30 31 33 34 36 37 39 42 45
21 22 23 24 24 25 25 25 26 26 27 27 26 25 25 24 23 23 22 22 22 22 22 21 21 22 22 23 24 25 26 27 28 29 31 32 33 34 35 37 38 40 43 47
18 19 20 21 22 22 23 23 24 24 25 26 26 26 25 25 24 24 23 22 22 22 22 22 23 23 23 24 24 25 27 28 29 31 32 33 34 35 37 38 40 42 45 48
16 16 17 19 20 20 21 21 22 23 24 24 25 25 25 25 24 24 23 23 23 23 23 23 24 24 24 25 25 26 27 29 30 32 33 34 35 36 37 39 41 44 47 50
15 15 16 17 18 18 19 19 20 21 22 23 23 23 23 24 24 24 24 24 23 23 24 24 24 24 25 25 26 27 28 30 32 33 34 35 36 37 38 40 42 45 48 50
14 14 15 16 17 17 18 18 19 20 20 21 21 22 23 23 24 24 24 24 23 23 24 24 24 25 25 26 27 28 30 31 32 34 35 36 37 38 39 41 44 46 49 50
16 16 16 17 17 18 18 18 19 20 20 21 21 21 22 23 23 24 24 24 24 24 25 25 25 26 26 27 28 30 31 32 33 34 35 36 37 39 40 42 45 47 49 49
18 18 18 19 19 20 20 20 20 20 21 21 22 22 22 23 24 24 25 25 26 26 26 26 27 27 28 29 30 31 32 33 34 34 35 36 38 40 41 43 46 48 48 48
20 20 20 21 21 21 22 23 23 23 23 24 24 24 24 25 25 25 26 26 27 27 28 28 29 29 30 30 31 31 32 33 34 35 36 37 39 40 42 44 46 48 48 47
24 24 23 23 23 23 24 24 25 25 25 25 26 26 26 26 27 27 28 28 29 29 29 29 30 30 30 31 31 32 33 34 35 35 37 38 39 41 43 45 47 48 48 46
Wind_Direction
200 203 209 216 225 233 242 249 254 255 257 264 272 275 280 286 292 295 298 305 309 314 318 321 323 324 321 318 314 308 300 291 280 271 264 258 253 250 247 246 246 247 249 251
205 210 218 228 237 244 249 251 253 252 255 261 268 276 283 289 296 301 305 312 316 321 325 329 331 333 333 330 328 323 314 305 292 277 266 257 251 246 243 242 242 244 247 249
214 221 229 239 246 250 250 250 251 250 253 259 268 280 290 298 302 307 312 316 321 326 331 336 338 342 342 341 338 337 332 322 310 293 273 253 242 234 234 236 237 241 246 249
224 231 238 242 245 247 248 248 248 249 252 258 269 284 297 306 311 314 317 320 324 329 336 341 344 347 350 350 349 349 347 342 329 299 278 245 224 223 227 231 236 240 245 249
232 237 242 242 241 242 244 245 243 247 253 262 275 293 306 314 317 321 323 326 330 333 340 344 347 351 355 359 2 3 3 5 7 2 351 258 229 221 222 229 236 244 249 252
236 239 240 239 237 238 241 243 242 249 256 267 280 297 308 317 321 325 329 331 335 338 343 347 351 358 3 8 11 14 18 21 24 24 33 70 202 224 234 238 245 251 257 260
236 238 239 238 235 235 239 241 244 250 257 267 283 297 307 314 319 324 328 331 335 340 345 350 354 359 5 10 16 20 24 26 30 36 43 44 351 287 272 268 268 270 272 274
238 237 237 237 236 235 238 241 245 249 256 269 282 293 302 310 317 322 327 329 332 337 343 350 357 2 7 11 16 21 26 28 29 24 21 18 352 320 299 290 287 287 288 291
237 238 238 236 235 235 238 241 247 251 257 267 281 291 300 308 314 320 326 329 331 334 340 344 350 357 5 10 14 17 17 16 14 12 6 353 337 326 318 310 306 305 304 304
236 237 236 235 235 235 237 242 247 251 256 264 276 287 295 302 309 314 319 323 326 329 333 336 339 346 353 359 4 5 4 1 358 353 346 340 333 327 321 316 313 311 310 309
236 236 237 236 236 237 238 242 247 252 255 262 272 282 290 296 302 306 312 315 316 317 319 323 328 334 341 346 347 348 348 347 345 342 338 334 329 325 321 318 316 315 314 313
236 236 237 237 238 238 239 242 246 250 254 260 268 277 286 291 296 299 302 307 309 307 306 307 312 317 324 331 334 336 337 337 336 334 330 327 324 321 320 318 317 316 316 316
238 238 238 238 239 240 242 244 247 250 254 259 265 272 279 287 290 291 294 300 302 300 296 296 300 304 311 318 323 327 329 330 329 327 325 323 321 319 319 318 318 318 319 320
240 240 240 241 242 243 244 246 249 251 255 259 263 269 274 279 283 285 287 293 296 295 291 290 293 297 302 310 315 320 322 323 323 323 321 320 319 318 319 319 320 321 322 323
243 242 243 243 244 245 246 247 250 252 255 259 263 267 271 274 277 279 282 287 291 292 288 285 289 294 299 305 311 315 317 318 319 319 319 319 318 319 319 320 321 322 323 324
246 245 244 245 245 246 247 248 250 252 255 259 263 266 268 270 272 274 278 282 286 288 285 283 286 290 296 302 307 311 313 314 316 317 318 318 318 319 320 320 321 322 323 325
249 248 248 248 248 248 249 250 251 252 255 258 261 264 265 266 267 269 273 278 281 283 283 284 286 288 293 299 303 307 311 312 314 316 317 317 318 319 320 321 321 322 324 326
249 249 250 251 251 250 251 251 252 253 254 257 260 261 261 262 264 266 269 274 278 280 281 282 285 288 292 296 301 305 308 311 313 315 316 317 317 318 319 320 321 323 324 326
251 250 251 251 251 251 251 252 253 254 254 255 258 258 259 261 262 264 268 271 275 279 281 282 285 287 291 295 300 304 307 310 312 314 315 316 317 318 319 320 321 323 325 327
253 253 252 252 251 251 252 253 254 255 256 256 257 258 258 259 260 263 267 270 274 278 280 283 286 288 291 295 299 303 306 309 312 314 315 316 317 318 319 320 321 323 326 328
254 253 252 252 252 253 255 256 256 257 257 257 257 257 258 258 260 262 265 269 274 277 280 283 285 287 291 294 298 302 305 308 311 313 315 316 317 318 319 320 322 324 326 328
255 255 254 253 253 254 256 257 258 258 259 258 258 259 258 259 260 262 265 269 273 276 279 282 285 287 290 294 299 303 306 308 311 313 315 316 317 318 319 320 322 324 327 328
258 258 257 256 256 256 258 259 260 261 261 260 260 259 259 259 259 262 266 269 272 275 279 282 285 287 290 295 300 304 307 309 311 313 315 316 317 318 319 321 323 325 327 328
264 264 263 263 262 262 262 263 263 263 263 262 262 261 260 259 259 261 265 268 271 274 277 280 283 286 291 295 300 303 306 308 311 313 314 316 317 318 319 321 323 325 327 327
267 268 268 268 267 266 266 267 267 267 266 265 264 264 262 261 261 262 264 267 270 273 275 278 281 285 289 294 299 302 305 307 310 312 314 316 317 319 320 322 324 325 327 327
267 268 270 271 271 271 271 270 269 269 269 268 267 266 264 263 263 263 264 266 268 271 274 277 281 285 289 293 297 300 303 306 309 312 314 316 317 319 321 323 324 326 327 327
268 269 270 271 271 272 272 273 272 271 270 270 269 268 267 266 266 265 265 266 268 270 273 277 281 284 288 291 295 298 301 304 308 311 313 315 317 319 322 323 325 326 327 327
Height
5644 5647 5650 5652 5655 5657 5659 5660 5662 5663 5663 5663 5663 5663 5662 5661 5659 5657 5655 5651 5647 5643 5638 5631 5623 5615 5606 5597 5589 5583 5578 5574 5572 5571 5572 5574 5577 5581 5587 5593 5600 5606 5612 5617
5643 5645 5648 5650 5652 5653 5655 5656 5658 5658 5659 5659 5659 5658 5657 5656 5654 5652 5649 5645 5642 5637 5632 5625 5618 5609 5601 5593 5586 5580 5575 5571 5569 5568 5568 5570 5572 5576 5581 5587 5593 5599 5605 5610
5641 5643 5645 5648 5649 5650 5651 5652 5654 5654 5655 5655 5655 5654 5653 5652 5649 5646 5643 5640 5637 5632 5627 5621 5614 5606 5599 5592 5586 5580 5575 5571 5569 5567 5567 5568 5571 5574 5579 5584 5589 5595 5600 5604
5639 5641 5643 5647 5646 5646 5648 5649 5650 5650 5651 5651 5651 5650 5649 5647 5645 5642 5639 5636 5632 5628 5623 5618 5611 5605 5598 5592 5586 5581 5577 5573 5571 5569 5569 5570 5572 5575 5579 5583 5588 5592 5596 5599
5636 5637 5639 5642 5642 5643 5644 5645 5646 5647 5647 5647 5647 5646 5645 5643 5641 5638 5635 5632 5628 5625 5621 5616 5610 5605 5599 5594 5588 5584 5580 5577 5574 5573 5573 5573 5575 5577 5581 5584 5587 5590 5593 5595
5632 5634 5636 5638 5639 5639 5642 5642 5643 5643 5644 5644 5643 5643 5642 5639 5637 5635 5632 5629 5626 5622 5618 5614 5610 5605 5600 5596 5591 5587 5584 5581 5579 5577 5577 5577 5578 5580 5582 5584 5587 5589 5590 5591
5627 5629 5631 5634 5634 5636 5639 5640 5639 5640 5640 5640 5639 5639 5638 5636 5634 5631 5629 5626 5623 5620 5617 5613 5610 5606 5602 5598 5594 5590 5587 5585 5583 5581 5581 5581 5581 5582 5583 5584 5585 5586 5587 5587
5623 5625 5629 5629 5631 5633 5634 5635 5635 5636 5636 5636 5636 5635 5634 5633 5631 5628 5626 5623 5621 5618 5615 5613 5610 5606 5603 5600 5597 5593 5591 5588 5586 5585 5584 5583 5583 5583 5584 5584 5584 5584 5583 5582
5620 5623 5623 5624 5626 5628 5630 5631 5632 5632 5633 5633 5633 5632 5631 5629 5628 5626 5623 5621 5619 5616 5614 5612 5609 5607 5604 5601 5598 5596 5593 5591 5589 5587 5586 5585 5585 5584 5583 5582 5581 5580 5578 5577
5614 5616 5618 5620 5621 5624 5625 5627 5628 5628 5629 5629 5629 5628 5627 5626 5624 5623 5621 5619 5617 5615 5613 5610 5608 5606 5604 5601 5599 5597 5594 5592 5590 5589 5587 5585 5584 5582 5581 5579 5578 5576 5574 5571
5609 5611 5613 5615 5617 5619 5621 5622 5623 5624 5625 5625 5625 5624 5624 5622 5621 5620 5618 5616 5615 5613 5611 5609 5607 5605 5603 5601 5599 5597 5594 5592 5590 5588 5586 5584 5582 5580 5578 5576 5573 5571 5568 5565
5604 5605 5608 5610 5612 5614 5615 5617 5618 5619 5620 5620 5621 5620 5619 5619 5618 5616 5615 5613 5612 5610 5609 5607 5605 5604 5602 5600 5598 5596 5593 5591 5588 5586 5584 5581 5579 5577 5574 5571 5569 5565 5562 5558
5598 5600 5602 5604 5606 5608 5610 5611 5613 5614 5615 5616 5616 5616 5615 5614 5613 5612 5611 5610 5608 5607 5606 5604 5603 5601 5599 5598 5595 5593 5591 5588 5586 5583 5581 5578 5575 5572 5569 5566 5563 5559 5554 5549
5591 5594 5596 5598 5600 5602 5604 5605 5607 5608 5609 5610 5610 5610 5610 5609 5609 5608 5607 5606 5605 5603 5602 5601 5599 5598 5596 5594 5592 5590 5588 5585 5582 5580 5577 5574 5571 5567 5564 5560 5556 5551 5547 5541
5585 5587 5590 5591 5593 5595 5597 5599 5600 5602 5603 5604 5604 5604 5604 5604 5604 5603 5603 5602 5600 5599 5598 5597 5596 5594 5592 5591 5589 5586 5584 5581 5578 5575 5572 5569 5565 5561 5557 5553 5548 5544 5538 5532
5579 5581 5583 5584 5586 5588 5590 5592 5593 5595 5596 5597 5598 5598 5598 5598 5598 5598 5597 5597 5596 5594 5593 5592 5591 5590 5588 5586 5584 5582 5579 5576 5573 5570 5567 5563 5559 5555 5551 5546 5541 5536 5530 5524
5572 5574 5576 5578 5579 5581 5583 5584 5586 5588 5589 5590 5591 5591 5592 5592 5592 5592 5592 5591 5590 5589 5588 5587 5586 5585 5583 5581 5579 5577 5574 5571 5568 5564 5561 5557 5553 5548 5544 5539 5533 5528 5522 5515
5566 5568 5569 5571 5572 5574 5575 5577 5579 5580 5581 5583 5584 5584 5585 5585 5586 5586 5586 5585 5585 5584 5583 5582 5581 5579 5578 5576 5574 5571 5569 5565 5562 5558 5554 5550 5546 5541 5536 5531 5525 5519 5513 5506
5560 5561 5563 5564 5565 5567 5568 5570 5571 5573 5574 5575 5576 5577 5578 5578 5579 5579 5579 5579 5579 5578 5577 5576 5575 5573 5572 5570 5568 5565 5563 5559 5556 5552 5548 5544 5539 5534 5529 5523 5517 5511 5505 5497
5554 5555 5557 5558 5559 5560 5562 5563 5564 5565 5566 5568 5569 5570 5570 5571 5572 5572 5573 5572 5572 5572 5571 5570 5568 5567 5566 5564 5562 5559 5556 5553 5549 5545 5541 5536 5532 5526 5521 5515 5509 5503 5496 5488
5549 5550 5551 5552 5553 5554 5555 5556 5557 5558 5559 5560 5561 5562 5563 5564 5565 5565 5565 5566 5565 5565 5564 5563 5562 5560 5559 5557 5555 5552 5550 5546 5543 5538 5534 5529 5524 5519 5513 5507 5501 5495 5487 5479
5544 5545 5546 5547 5548 5549 5549 5550 5551 5552 5552 5553 5554 5555 5555 5556 5557 5558 5558 5558 5558 5558 5557 5556 5555 5554 5552 5550 5548 5545 5542 5539 5535 5531 5526 5521 5516 5511 5505 5499 5493 5486 5479 5470
5540 5541 5541 5542 5543 5543 5544 5545 5545 5546 5546 5546 5547 5548 5548 5549 5550 5551 5551 5551 5551 5551 5550 5549 5548 5547 5545 5543 5541 5538 5535 5532 5528 5523 5519 5514 5509 5503 5497 5491 5485 5478 5470 5461
5535 5536 5536 5537 5537 5538 5539 5539 5539 5539 5540 5540 5540 5541 5541 5542 5543 5543 5544 5544 5544 5543 5543 5542 5541 5539 5538 5536 5534 5531 5528 5524 5520 5516 5511 5506 5501 5495 5489 5483 5476 5469 5461 5453
5530 5530 5531 5531 5532 5532 5533 5533 5533 5533 5534 5534 5534 5534 5535 5535 5536 5536 5536 5536 5536 5536 5535 5534 5533 5532 5530 5528 5526 5523 5520 5517 5513 5508 5503 5499 5493 5487 5481 5475 5468 5460 5452 5444
5524 5524 5524 5525 5525 5525 5526 5526 5526 5526 5527 5527 5527 5527 5528 5528 5528 5528 5528 5528 5528 5528 5527 5526 5525 5524 5522 5520 5518 5515 5512 5509 5505 5501 5496 5491 5485 5480 5474 5467 5460 5452 5444 5436
5517 5517 5517 5517 5518 5518 5518 5518 5518 5519 5519 5519 5519 5519 5519 5520 5520 5520 5520 5520 5520 5519 5519 5518 5517 5516 5514 5512 5510 5507 5504 5501 5497 5493 5488 5483 5478 5472 5466 5459 5452 5444 5436 5428